Location: Atlantic Beach
(40.5890°N, 73.7290°W)
Time: 13:45:42
(UTC+00:00)

NOAA 11 - Pass Details

Date: 29 October 2020
Orbit: 833 x 849 km, 98.4° (Epoch: 01 December)

Event Time Altitude Azimuth Distance (km) Brightness Sun altitude
Rises 22:22:27 0° 153° (SSE) 3,381 7.2 -6.0°
Reaches altitude 10° 22:24:51 10° 149° (SSE) 2,448 6.4 -6.4°
Maximum altitude 22:30:08 56° 72° (ENE) 995 4.3 -7.4°
Drops below altitude 10° 22:35:26 10° 356° (N) 2,455 6.6 -8.4°
Sets 22:37:50 0° 352° (N) 3,392 7.3 -8.8°
